Location: Dreslincourt
(49.7889°N, 2.8785°E)
Time: 01:24:54
(UTC+00:00)

Daily predictions for brighter satellites

Satellite Brightness Start Highest point End
(mag) Time Altitude Azimuth Time Altitude Azimuth Time Altitude Azimuth
USA 59 Rocket 3.1 03:34:44 11° E 03:34:44 11° E 03:34:52 10° ESE
NOSS 3-1 (C) 4.5 03:34:05 48° NNE 03:34:09 48° NE 03:42:08 10° ESE
ACS3 Solar Sail 4.2 03:40:16 10° N 03:40:27 11° N 03:40:27 11° N
SL-16 R/B 4.0 03:46:48 24° NNE 03:47:37 25° NE 03:52:16 10° E
Cosmos 2082 Rocket 3.7 03:49:32 26° SE 03:51:21 32° ESE 03:56:16 10° NE
COSMOS 2455 3.4 03:58:09 56° ENE 03:58:09 56° ENE 04:03:25 10° SE
ATLAS 3B R/B 4.2 03:59:03 29° N 03:59:41 29° N 04:06:21 10° ENE
NOSS 3-4 (A) 4.4 04:02:31 35° NNE 04:02:31 35° NNE 04:06:08 10° NE
NOSS 3-4 (C) 4.4 04:02:40 35° NNE 04:02:40 35° NNE 04:06:18 10° NE
Cosmos 1980 Rocket 3.5 04:14:14 30° SSE 04:14:14 30° SSE 04:16:57 10° SSE
Cosmos 2369 3.9 04:16:15 69° E 04:16:15 69° E 04:21:30 10° SE
COSMO-SKYMED 1 4.2 04:18:35 10° SE 04:22:09 29° ENE 04:22:50 28° NE
Aureole 1 Rocket 4.2 04:20:44 56° NNW 04:22:31 86° ENE 04:30:01 10° SSE
ADEOS Rocket 4.5 04:16:10 10° N 04:20:30 32° NNW 04:20:30 32° NNW
Cosmos 2180 Rocket 4.4 04:23:51 47° N 04:25:50 86° ENE 04:32:10 10° S
Cosmos 1937 Rocket 4.1 04:25:55 48° NNE 04:26:40 52° ENE 04:31:39 10° SE
Cosmos 909 Rocket 4.5 04:28:18 53° NNW 04:28:18 53° NNW 04:34:23 10° NE
Cosmos 372 Rocket 4.2 04:33:38 60° SSE 04:33:38 60° SSE 04:37:45 10° SSE
Celestis-02/Orion 38 4.5 04:30:29 10° NNE 04:35:17 80° NE 04:35:17 80° NE
Cosmos 2333 Rocket 3.4 04:33:56 24° N 04:36:47 39° NE 04:42:08 10° ESE
NOSS 3-1 (A) 4.4 04:37:46 34° NNW 04:40:48 55° NE 04:49:03 10° ESE
Cosmos 1606 Rocket 3.8 04:43:12 69° ESE 04:43:12 69° ESE 04:47:21 10° SSE
Cosmos 2360 Rocket 3.7 04:40:11 18° N 04:43:27 31° NE 04:48:24 10° ESE
Cosmos 2142 Rocket 4.4 04:47:06 54° NW 04:48:17 64° W 04:54:24 10° S
Cosmos 540 Rocket 4.4 04:56:48 33° N 04:56:48 33° N 04:59:57 10° NNE
USA 234 3.7 04:49:34 10° ENE 04:55:48 48° N 04:57:47 37° NW
Helios 1A Rocket 3.4 04:53:02 10° SSE 04:55:47 46° ESE 04:55:47 46° ESE
SeaSat 1 4.1 04:56:20 10° NNE 04:58:20 20° N 04:58:20 20° N
Cosmos 2219 Rocket 3.9 04:58:08 13° N 05:02:14 28° NE 05:07:03 10° ESE
SL-4 R/B 2.6 05:03:15 39° ENE 05:03:15 39° ENE 05:05:28 10° E
ATLAS 5 CENTAUR R/B 3.5 05:05:55 13° NNE 05:05:55 13° NNE 05:06:28 10° NNE
Cosmos 2322 Rocket 3.1 05:01:43 18° NNW 05:05:39 46° NE 05:11:05 10° SE
Cosmos 1726 Rocket 3.4 05:08:07 45° NNW 05:09:25 86° W 05:13:40 10° S
Meteor 2-3 Rocket 4.0 05:05:32 10° S 05:11:14 72° E 05:16:55 10° NNE
CZ-4 R/B 3.7 05:10:26 10° NNE 05:15:07 89° ESE 05:19:44 10° SSW
Cosmos 489 Rocket 4.4 05:08:57 10° SSW 05:15:16 87° ESE 05:21:34 10° NNE
Nadezhda 4 Rocket 3.9 05:09:58 10° SSW 05:16:17 72° WNW 05:22:34 10° N
Cosmos 1428 Rocket 4.4 05:11:08 10° S 05:17:22 82° W 05:23:42 10° N
NOSS 2-1 (D) 4.0 05:17:47 39° SW 05:17:47 39° SW 05:21:40 10° SSE
Cosmos 2237 4.2 05:15:45 39° NW 05:17:43 60° WSW 05:23:17 10° S
CZ-2C R/B 4.2 05:14:38 10° N 05:16:11 18° NNW 05:16:11 18° NNW
USA 59 Rocket 0.7 05:20:26 35° SW 05:20:26 35° SW 05:24:19 10° SSE
Cosmos 841 Rocket 3.4 05:17:59 10° SSW 05:23:13 79° WNW 05:28:31 10° NNE
COSMOS 2406 3.2 05:18:05 10° SSW 05:23:45 83° ESE 05:29:28 10° NNE
NOSS 2-1 (E) 3.7 05:25:12 42° SW 05:25:14 42° SW 05:29:33 10° SSE
NOSS 3-1 (C) 4.1 05:21:26 30° NW 05:25:21 63° SW 05:34:01 10° SSE
Cosmos 1833 Rocket 4.1 05:28:01 20° NNW 05:28:01 20° NNW 05:31:29 10° N
Cosmos 1892 Rocket 3.4 05:25:49 10° S 05:30:11 86° W 05:34:37 10° N
Cosmos 2195 Rocket 4.4 05:24:25 10° SSW 05:30:42 82° W 05:37:04 10° N
SL-16 R/B 2.1 05:28:40 23° NNW 05:32:20 78° WSW 05:37:59 10° SSE
Cosmos 2082 Rocket 2.3 05:31:29 20° WSW 05:35:12 50° NW 05:40:41 10° NNE
IRS-1D 3.6 05:37:24 10° N 05:42:13 50° WNW 05:47:05 10° SW
COSMOS 2455 3.6 05:41:19 27° W 05:43:05 32° WSW 05:48:17 10° S
Cosmos 1898 Rocket 4.3 05:42:42 28° W 05:43:42 30° W 05:48:14 10° SSW
Meteor 2-20 4.4 05:39:08 10° NNW 05:45:11 64° W 05:51:10 10° S
NOSS 2-1 (C) 4.4 05:44:49 25° WSW 05:45:13 26° SW 05:49:02 10° S
Orbus 7S? 2.8 05:47:32 39° NNW 05:48:16 57° NNE 05:50:56 10° ESE
Cosmos 405 Rocket 4.0 05:45:51 10° SSE 05:48:51 36° E 05:51:54 10° NNE
NOSS 3-4 (C) 4.5 05:50:06 20° NW 05:52:25 26° NNW 05:57:42 10° NE
ATLAS 3B R/B 3.9 05:46:18 14° NW 05:52:36 41° NNE 05:59:46 10° E
Cosmos-2242 2.9 05:49:33 10° NNW 05:53:47 66° W 05:57:57 10° S
Cosmos 1980 Rocket 4.1 05:56:02 12° WSW 05:56:02 12° WSW 05:56:53 10° WSW
Cosmos 2278 3.7 05:51:02 17° NW 05:55:25 61° WSW 06:00:57 10° SSE
COSMO-SKYMED 1 3.2 05:53:44 10° SSW 05:57:25 31° W 05:59:09 23° NW
Cosmos 2058 Rocket 3.2 05:56:34 10° NNW 06:00:55 53° W 06:05:13 10° S
Cosmos 1484 Rocket 2.3 05:57:31 10° N 06:00:56 66° WNW 06:04:17 10° SSW
Cosmos 1627 Rocket 4.4 05:57:14 10° SSW 06:03:15 60° WNW 06:09:21 10° N
Meteor 2-2 Rocket 4.3 05:58:36 10° NNW 06:04:11 59° W 06:09:49 10° S
Cosmos 1346 Rocket 4.5 06:07:59 15° NNW 06:07:59 15° NNW 06:09:02 10° NNW
Okean 1 3.1 06:03:39 13° NNW 06:06:42 50° W 06:10:08 10° S
Meteor 2-20 Rocket 4.3 06:01:41 10° NNW 06:07:23 60° W 06:12:57 10° S
Cosmos 1937 Rocket 4.5 06:06:02 19° WNW 06:08:12 25° W 06:12:21 10° SSW
ARIANE 5 R/B 3.6 06:07:55 10° NNE 06:13:01 50° E 06:18:04 10° S
Cosmos 2285 Rocket 4.0 06:07:02 10° NNW 06:13:26 82° WSW 06:19:50 10° SSE
ATLAS 2AS CENTAUR R/B 4.4 06:08:55 10° S 06:15:18 38° ESE 06:21:33 10° NE
SL-08 ROCKET BODY 4.4 06:10:49 10° S 06:16:40 85° E 06:22:33 10° N
SL-08 R/B 4.4 06:14:01 10° SE 06:18:21 42° ENE 06:22:45 10° N
IRIDIUM 104 4.3 06:13:18 10° S 06:18:31 77° W 06:23:46 10° N
Cosmos 2333 Rocket 2.6 06:15:58 11° NW 06:21:11 46° WSW 06:26:37 10° S
SAR-Lupe-4 4.2 06:19:47 10° NNE 06:23:19 60° ESE 06:26:49 10° S
SMAP 3.1 06:19:35 10° NNE 06:24:17 87° E 06:28:57 10° SSW
IRIDIUM 114 4.3 06:22:30 10° SSW 06:27:41 65° W 06:32:53 10° N
Cosmos 2360 Rocket 2.3 06:22:15 10° NW 06:27:46 58° WSW 06:33:15 10° S
Helios 1A Rocket 4.4 06:27:44 10° WSW 06:29:11 12° W 06:29:20 12° W
Landsat 7 3.9 06:25:33 10° NNE 06:30:14 81° ESE 06:34:54 10° SSW
NOSS 3-1 (A) 4.4 06:25:10 11° NW 06:31:54 54° WSW 06:40:27 10° SSE
CBERS-1 4.1 06:27:55 10° N 06:32:56 57° WNW 06:37:54 10° SW
Cosmos 2026 Rocket 4.4 06:27:26 10° SW 06:32:56 36° WNW 06:38:32 10° N
IGS 5A 3.8 06:30:03 10° N 06:33:46 39° WNW 06:37:30 10° SW
Cosmos 1814 Rocket 4.0 06:29:12 10° SSW 06:34:25 76° WNW 06:39:45 10° NNE
BREEZE-M DEB (TANK) 3.1 06:34:38 11° W 06:36:06 27° SSW 06:38:24 10° SE
Cosmos 2237 Rocket 3.9 06:31:48 10° NNW 06:36:24 25° NE 06:40:59 10° E
IRIDIUM 103 4.5 06:31:47 10° SSW 06:36:53 54° W 06:42:01 10° N
USA 234 3.5 06:31:51 10° E 06:38:19 64° NNE 06:44:48 10° WNW
SL-4 R/B 1.5 06:36:58 12° WNW 06:39:56 67° SSW 06:43:04 10° ESE
Cosmos 1758 Rocket 3.6 06:36:24 10° SSW 06:40:46 59° WNW 06:45:08 10° N
Cosmos 1733 2.5 06:40:00 10° SW 06:41:34 24° WNW 06:43:11 10° NNW
Cosmos 1743 2.2 06:38:36 10° SSW 06:41:49 66° W 06:45:04 10° N
IRS-1C 4.3 06:36:51 10° NNE 06:42:14 82° ESE 06:47:33 10° SSW
Thor Agena Rocket 3.5 06:40:25 10° N 06:45:27 63° WNW 06:50:24 10° SSW
BREEZE-M DEB (TANK) 3.3 06:43:05 10° W 06:45:56 86° S 06:54:06 10° E
Cosmos 2219 Rocket 2.3 06:41:01 10° NNW 06:46:40 68° WSW 06:52:14 10° SSE
Cosmos 192 4.3 06:42:03 10° NNW 06:46:59 75° WSW 06:51:52 10° SSE
ATLAS 5 CENTAUR R/B 3.3 06:46:44 10° NNW 06:47:30 11° N 06:48:18 10° N
Cosmos 2322 Rocket 2.9 06:44:25 10° NW 06:49:35 36° WSW 06:54:43 10° S
S3M 4.0 06:44:04 10° N 06:50:18 81° W 06:56:26 10° S
Cosmos 1553 Rocket 4.5 06:46:54 10° NNW 06:52:47 41° W 06:58:42 10° SSW
USA 229 4.3 06:48:06 10° NW 06:55:21 67° NE 07:03:22 10° SE
USA 229 DEB 4.3 06:48:11 10° NW 06:55:26 67° NE 07:03:27 10° SE
Cosmos 2322 4.1 06:49:51 10° NNW 06:55:30 67° ENE 07:01:08 10° SE
SJ-12 3.8 06:53:52 10° N 06:57:37 56° WNW 07:01:21 10° SSW
SKYMED 3 4.4 06:54:48 10° S 06:58:49 78° WSW 07:02:51 10° NNW
Resurs 01 Rocket 4.3 06:56:00 10° NE 06:59:29 23° E 07:02:58 10° SE
YAOGAN 1 3.6 06:56:25 10° NNE 07:00:35 50° E 07:04:43 10° S
